COSMOS 2432 (719)

Last updated on Jan. 23, 2021, 7:31 a.m. UTC

1 32276U 07052B   21022.89799610 -.00000032  00000-0  00000-0 0  9996
2 32276  66.0503  21.7134 0011712 317.0351 251.9107  2.13103456103084
UTC
Height (km)
Latitude
Longitude
Inclination
Orbital Period
UTC large
Height (km)
Speed (km/s)
/
Latitude / Longitude
Inclination (degrees)
Orbital Period (minutes)
Azimuth
Elevation
Range (km)
Doppler Factor
iOS Compass Heading
iOS Angle

Next 30 passes for location: Hong Kong

Rise time Rise Azimuth (degrees) Set time Set Azimuth (degrees) Duration Max altitude (degrees)

No matching passes for this satellites